TimeCDT,TemperatureF,Dew PointF,Humidity,Sea Level PressureIn,VisibilityMPH,Wind Direction,Wind SpeedMPH,Gust SpeedMPH,PrecipitationIn,Events,Conditions,WindDirDegrees,DateUTC
12:15 AM,33.8,26.6,75,30.31,-9999.0,SE,5.8,-,N/A,,Overcast,130,2012-10-28 05:15:00
12:55 AM,33.8,26.6,75,30.31,10.0,SE,5.8,-,N/A,,Overcast,130,2012-10-28 05:55:00
1:15 AM,32.0,26.6,80,30.31,10.0,SE,4.6,-,N/A,,Overcast,130,2012-10-28 06:15:00
1:35 AM,32.0,26.6,80,30.31,10.0,SE,4.6,-,N/A,,Overcast,130,2012-10-28 06:35:00
1:55 AM,33.8,26.6,75,30.31,10.0,SE,4.6,-,N/A,,Overcast,130,2012-10-28 06:55:00
2:15 AM,32.0,26.6,80,30.31,10.0,SE,4.6,-,N/A,,Overcast,130,2012-10-28 07:15:00
2:35 AM,33.8,26.6,75,30.31,10.0,SE,5.8,-,N/A,,Overcast,130,2012-10-28 07:35:00
2:55 AM,33.8,26.6,75,30.31,10.0,SE,5.8,-,N/A,,Overcast,140,2012-10-28 07:55:00
3:15 AM,33.8,26.6,75,30.30,10.0,SE,5.8,-,N/A,,Overcast,130,2012-10-28 08:15:00
3:35 AM,33.8,26.6,75,30.30,10.0,SE,5.8,-,N/A,,Overcast,130,2012-10-28 08:35:00
3:55 AM,33.8,26.6,75,30.29,10.0,SE,6.9,-,N/A,,Overcast,130,2012-10-28 08:55:00
4:15 AM,32.0,26.6,80,30.29,10.0,SE,5.8,-,N/A,,Overcast,140,2012-10-28 09:15:00
4:35 AM,33.8,26.6,75,30.29,10.0,SE,5.8,-,N/A,,Overcast,130,2012-10-28 09:35:00
4:55 AM,33.8,26.6,75,30.29,10.0,SE,5.8,-,N/A,,Overcast,130,2012-10-28 09:55:00
5:15 AM,33.8,26.6,75,30.30,10.0,SE,5.8,-,N/A,,Overcast,140,2012-10-28 10:15:00
5:35 AM,33.8,26.6,75,30.30,10.0,SE,5.8,-,N/A,,Overcast,140,2012-10-28 10:35:00
5:55 AM,33.8,26.6,75,30.29,10.0,SSE,6.9,-,N/A,,Overcast,150,2012-10-28 10:55:00
6:15 AM,33.8,26.6,75,30.29,10.0,SSE,8.1,-,N/A,,Overcast,150,2012-10-28 11:15:00
6:35 AM,33.8,26.6,75,30.30,10.0,SSE,8.1,-,N/A,,Overcast,160,2012-10-28 11:35:00
6:55 AM,33.8,26.6,75,30.30,10.0,SE,6.9,-,N/A,,Overcast,140,2012-10-28 11:55:00
7:15 AM,33.8,26.6,75,30.30,10.0,SSE,5.8,-,N/A,,Overcast,150,2012-10-28 12:15:00
7:35 AM,32.0,26.6,80,30.31,10.0,SSE,5.8,-,N/A,,Overcast,150,2012-10-28 12:35:00
7:55 AM,33.8,26.6,75,30.32,10.0,SSE,6.9,-,N/A,,Overcast,160,2012-10-28 12:55:00
8:15 AM,33.8,26.6,75,30.32,10.0,SE,6.9,-,N/A,,Overcast,140,2012-10-28 13:15:00
8:35 AM,33.8,26.6,75,30.32,10.0,SE,5.8,-,N/A,,Overcast,140,2012-10-28 13:35:00
8:55 AM,33.8,26.6,75,30.33,10.0,SE,6.9,-,N/A,,Overcast,140,2012-10-28 13:55:00
9:35 AM,35.6,26.6,70,30.33,10.0,SSE,9.2,-,N/A,,Overcast,160,2012-10-28 14:35:00
9:55 AM,35.6,26.6,70,30.33,10.0,SSE,10.4,-,N/A,,Overcast,160,2012-10-28 14:55:00
10:15 AM,37.4,26.6,65,30.33,10.0,SSE,8.1,-,N/A,,Overcast,160,2012-10-28 15:15:00
10:35 AM,37.4,26.6,65,30.33,10.0,South,11.5,-,N/A,,Overcast,170,2012-10-28 15:35:00
10:55 AM,39.2,26.6,61,30.33,10.0,SSE,11.5,-,N/A,,Overcast,160,2012-10-28 15:55:00
11:15 AM,39.2,26.6,61,30.32,10.0,South,13.8,-,N/A,,Overcast,180,2012-10-28 16:15:00
11:35 AM,41.0,26.6,57,30.32,10.0,South,12.7,-,N/A,,Overcast,180,2012-10-28 16:35:00
12:15 PM,42.8,26.6,53,30.31,10.0,South,13.8,-,N/A,,Mostly Cloudy,180,2012-10-28 17:15:00
12:35 PM,44.6,28.4,53,30.31,10.0,South,15.0,-,N/A,,Mostly Cloudy,180,2012-10-28 17:35:00
12:55 PM,42.8,26.6,53,30.30,10.0,South,13.8,-,N/A,,Mostly Cloudy,190,2012-10-28 17:55:00
1:15 PM,42.8,26.6,53,30.30,10.0,South,11.5,18.4,N/A,,Overcast,190,2012-10-28 18:15:00
1:35 PM,44.6,26.6,49,30.29,10.0,South,13.8,-,N/A,,Overcast,180,2012-10-28 18:35:00
1:55 PM,46.4,28.4,50,30.28,10.0,South,11.5,-,N/A,,Mostly Cloudy,180,2012-10-28 18:55:00
2:15 PM,46.4,26.6,46,30.27,10.0,SSE,11.5,17.3,N/A,,Partly Cloudy,160,2012-10-28 19:15:00
2:35 PM,46.4,28.4,50,30.26,10.0,South,10.4,17.3,N/A,,Clear,190,2012-10-28 19:35:00
2:55 PM,46.4,28.4,50,30.25,10.0,South,12.7,-,N/A,,Clear,180,2012-10-28 19:55:00
3:15 PM,46.4,28.4,50,30.25,-9999.0,South,11.5,-,N/A,,Clear,170,2012-10-28 20:15:00
3:35 PM,46.4,26.6,46,30.25,10.0,South,11.5,-,N/A,,Clear,170,2012-10-28 20:35:00
3:55 PM,46.4,26.6,46,30.25,10.0,South,9.2,-,N/A,,Clear,180,2012-10-28 20:55:00
4:15 PM,46.4,26.6,46,30.25,10.0,South,10.4,-,N/A,,Clear,190,2012-10-28 21:15:00
4:35 PM,46.4,26.6,46,30.24,10.0,South,13.8,-,N/A,,Clear,190,2012-10-28 21:35:00
4:55 PM,46.4,26.6,46,30.23,10.0,SSE,10.4,-,N/A,,Clear,150,2012-10-28 21:55:00
5:15 PM,46.4,24.8,43,30.24,10.0,South,9.2,15.0,N/A,,Clear,170,2012-10-28 22:15:00
5:35 PM,44.6,26.6,49,30.24,10.0,South,9.2,-,N/A,,Clear,170,2012-10-28 22:35:00
5:55 PM,44.6,26.6,49,30.24,10.0,SSE,8.1,-,N/A,,Clear,160,2012-10-28 22:55:00
6:15 PM,42.8,28.4,57,30.25,10.0,SSE,6.9,-,N/A,,Clear,150,2012-10-28 23:15:00
6:35 PM,41.0,26.6,57,30.24,10.0,SE,5.8,-,N/A,,Clear,140,2012-10-28 23:35:00
6:55 PM,41.0,26.6,57,30.24,10.0,SSE,8.1,-,N/A,,Scattered Clouds,150,2012-10-28 23:55:00
7:15 PM,41.0,26.6,57,30.25,10.0,SSE,6.9,-,N/A,,Mostly Cloudy,150,2012-10-29 00:15:00
7:35 PM,39.2,26.6,61,30.26,10.0,SE,9.2,-,N/A,,Scattered Clouds,140,2012-10-29 00:35:00
7:55 PM,39.2,26.6,61,30.26,10.0,SE,6.9,-,N/A,,Mostly Cloudy,140,2012-10-29 00:55:00
8:15 PM,39.2,26.6,61,30.26,10.0,SSE,6.9,-,N/A,,Overcast,150,2012-10-29 01:15:00
8:35 PM,39.2,24.8,56,30.26,10.0,SSE,8.1,-,N/A,,Overcast,160,2012-10-29 01:35:00
8:55 PM,39.2,24.8,56,30.26,10.0,SSE,9.2,-,N/A,,Overcast,150,2012-10-29 01:55:00
9:15 PM,37.4,24.8,60,30.26,10.0,SSE,10.4,-,N/A,,Overcast,150,2012-10-29 02:15:00
9:35 PM,39.2,24.8,56,30.26,10.0,SSE,10.4,-,N/A,,Mostly Cloudy,150,2012-10-29 02:35:00
9:55 PM,37.4,24.8,60,30.27,10.0,SSE,9.2,-,N/A,,Mostly Cloudy,150,2012-10-29 02:55:00
10:35 PM,35.6,24.8,65,30.27,10.0,SE,8.1,-,N/A,,Scattered Clouds,130,2012-10-29 03:35:00
10:55 PM,35.6,24.8,65,30.27,10.0,SE,6.9,-,N/A,,Clear,130,2012-10-29 03:55:00
11:15 PM,33.8,23.0,65,30.27,10.0,SE,6.9,-,N/A,,Clear,130,2012-10-29 04:15:00
11:55 PM,33.8,23.0,65,30.27,10.0,SE,8.1,-,N/A,,Clear,130,2012-10-29 04:55:00